Key statistics
Satellite PEGASUS DEB at a glance.
Uptime
11289
Days in orbit
Revolutions
≈ 16.0
Per day
Orbit
LEO
Low Earth Orbit
Inclination
81.4
Latest
Satellite identification and parameters
Extended collection of information and parameters for PEGASUS DEB.
Object identification
Identified? True
Debris? True
Object name: PEGASUS DEB
International designator: 1994-029ACL
Object number (NORAD): 24978
Object ID (CCSDS): 24978
Country: UNITED STATES OF AMERICA (US)
Current information (Y/N): Y
RCS size: SMALL
Orbital parameters
Decay date: April 15, 2025
Period: 89.838 minutes
Inclination: 81.4001 deg
SMA: 6644.594 km
Apoapsis: 285.136 km
Periapsis: 247.782 km
RAAN: 319.2285 deg
Eccentricy: 0.0028109
Argument of periapsis: 262.7507 deg
Mean anomaly: 97.0573 deg
Mean motion: 16.02876605 rev/day
Mean motion (dot): 0.03510317 rev/day2
B* drag term: 0.0066696 1/REarth
Two-line elements (TLE)
Creation date: April 10, 2025, 11:30 p.m.
Reference frame: TEME
Reference center: EARTH
Epoch: April 10, 2025, 12:53 a.m. UTC
TLE line 0: 0 PEGASUS DEB
TLE line 1: 1 24978U 94029ACL 25100.03702345 .03510317 16487-1 66696-2 0 9998
TLE line 2: 2 24978 81.4001 319.2285 0028109 262.7507 97.0573 16.02876605492462
Live tracking on map
Satellite PEGASUS DEB has decayed and is no longer in orbit. No tracking available.
In-orbit conjunctions
Satellite PEGASUS DEB has decayed and is no longer in orbit. No conjunctions available.
Associated space launch
PEGASUS DEB was lifted into orbit during the mission ‘Pegasus HAPS | Space Test Experiments Platform 2 (STEP-2)’, on board a Pegasus HAPS space rocket.
The launch took place on May 19, 1994, 5:03 p.m. from Edwards Air Force Base.
For more information about the launch, click the button.
Pegasus HAPS | Space Test Experiments Platform 2 (STEP-2)
Agency: N/A
Status: Launch Successful
Launch date: May 19, 1994, 5:03 p.m. UTC
Rocket: Pegasus HAPS
Launch pad: Edwards Air Force Base
Location: Air launch to orbit
...
Latest news about this satellite
There are no fresh news available about this satellite. Check back as we update our databases every day.
Newsletter sign-up
Weekly statistics, charts and insights to help you stay on top of the space industry.
